📊 Raw Sensor Data
Showing records 37851 to 37875 of 84,920 total
| ID | Distance (ft) | Battery V | Battery A | Int Temp (°F) | Int Humid (%) | Ext Temp (°F) | Solar V | RSSI | SNR | Time Stamp |
|---|---|---|---|---|---|---|---|---|---|---|
| 47082 | 15.1 | 3.80 | -5 | 55 | 44 | 57 | 0.10 | -72 | 8 | 07/23/2025 02:00 AM |
| 47081 | 15.1 | 3.79 | -5 | 56 | 44 | 56 | 0.00 | -72 | 8 | 07/23/2025 01:45 AM |
| 47080 | 15.1 | 3.80 | -5 | 56 | 44 | 57 | 0.00 | -71 | 8 | 07/23/2025 01:30 AM |
| 47079 | 15.1 | 3.79 | -5 | 56 | 44 | 57 | 0.00 | -71 | 8 | 07/23/2025 01:15 AM |
| 47078 | 15.1 | 3.72 | -5 | 57 | 44 | 57 | 0.00 | -71 | 8 | 07/23/2025 01:00 AM |
| 47077 | 15.1 | 3.72 | -5 | 56 | 44 | 57 | 0.00 | -71 | 8 | 07/23/2025 12:45 AM |
| 47076 | 15.1 | 3.86 | -5 | 57 | 44 | 57 | 0.00 | -70 | 8 | 07/23/2025 12:30 AM |
| 47075 | 15.1 | 3.72 | -5 | 57 | 44 | 58 | 0.10 | -70 | 8 | 07/23/2025 12:15 AM |
| 47074 | 15.1 | 3.72 | -5 | 57 | 45 | 58 | 0.00 | -71 | 8 | 07/23/2025 12:00 AM |
| 47073 | 15.1 | 3.72 | -5 | 58 | 45 | 58 | 0.00 | -69 | 8 | 07/22/2025 11:45 PM |
| 47072 | 15.1 | 3.72 | -5 | 58 | 45 | 58 | 0.00 | -72 | 7 | 07/22/2025 11:30 PM |
| 47071 | 15.1 | 3.86 | -5 | 58 | 45 | 59 | 0.00 | -71 | 8 | 07/22/2025 11:15 PM |
| 47070 | 15.1 | 3.72 | -5 | 58 | 46 | 59 | 0.00 | -70 | 8 | 07/22/2025 11:00 PM |
| 47069 | 15.1 | 3.72 | -5 | 59 | 46 | 59 | 0.10 | -71 | 7 | 07/22/2025 10:45 PM |
| 47068 | 15.1 | 3.72 | -5 | 60 | 46 | 60 | 0.00 | -72 | 8 | 07/22/2025 10:30 PM |
| 47067 | 15.1 | 3.72 | -5 | 60 | 46 | 60 | 0.00 | -72 | 6 | 07/22/2025 10:15 PM |
| 47066 | 15.1 | 3.72 | -5 | 60 | 47 | 61 | 0.00 | -71 | 8 | 07/22/2025 10:00 PM |
| 47065 | 15.1 | 3.86 | -5 | 61 | 48 | 61 | 0.00 | -65 | 7 | 07/22/2025 09:45 PM |
| 47064 | 15.1 | 3.72 | -5 | 62 | 49 | 62 | 0.00 | -66 | 8 | 07/22/2025 09:30 PM |
| 47063 | 15.1 | 3.86 | -5 | 63 | 50 | 62 | 0.00 | -66 | 8 | 07/22/2025 09:15 PM |
| 47062 | 15.1 | 3.72 | -5 | 64 | 51 | 63 | 0.00 | -66 | 8 | 07/22/2025 09:00 PM |
| 47061 | 15.2 | 3.72 | -5 | 66 | 52 | 64 | 0.20 | -66 | 8 | 07/22/2025 08:45 PM |
| 47060 | 15.2 | 3.84 | -10 | 68 | 53 | 65 | 3.80 | -65 | 8 | 07/22/2025 08:30 PM |
| 47059 | 15.2 | 3.72 | 0 | 73 | 51 | 67 | 4.50 | -65 | 7 | 07/22/2025 08:15 PM |
| 47058 | 15.2 | 3.93 | 10 | 77 | 49 | 71 | 4.50 | -65 | 8 | 07/22/2025 08:00 PM |